TimePDT,TemperatureF,Dew PointF,Humidity,Sea Level PressureIn,VisibilityMPH,Wind Direction,Wind SpeedMPH,Gust SpeedMPH,PrecipitationIn,Events,Conditions,WindDirDegrees,DateUTC
12:53 AM,36.0,30.9,82,30.28,10.0,North,-9999.0,-,N/A,,Clear,0,2013-03-24 07:53:00
1:53 AM,35.1,30.9,85,30.28,10.0,Calm,Calm,-,N/A,,Partly Cloudy,0,2013-03-24 08:53:00
2:53 AM,37.0,33.1,86,30.27,10.0,Calm,Calm,-,N/A,,Overcast,0,2013-03-24 09:53:00
3:53 AM,37.9,32.0,79,30.27,10.0,Calm,Calm,-,N/A,,Overcast,0,2013-03-24 10:53:00
4:53 AM,37.0,32.0,82,30.25,10.0,Calm,Calm,-,N/A,,Overcast,0,2013-03-24 11:53:00
5:53 AM,37.0,32.0,82,30.25,10.0,WNW,3.5,-,N/A,,Overcast,300,2013-03-24 12:53:00
6:53 AM,36.0,32.0,86,30.25,10.0,NNW,3.5,-,N/A,,Scattered Clouds,330,2013-03-24 13:53:00
7:53 AM,37.0,32.0,82,30.24,10.0,North,3.5,-,N/A,,Partly Cloudy,360,2013-03-24 14:53:00
8:53 AM,39.9,33.1,77,30.24,10.0,NNW,3.5,-,N/A,,Clear,340,2013-03-24 15:53:00
9:53 AM,44.1,33.1,65,30.23,10.0,North,4.6,-,N/A,,Overcast,360,2013-03-24 16:53:00
10:53 AM,46.9,33.1,59,30.22,10.0,Calm,Calm,-,N/A,,Overcast,0,2013-03-24 17:53:00
11:53 AM,48.9,33.1,54,30.21,10.0,NE,5.8,-,N/A,,Overcast,40,2013-03-24 18:53:00
12:53 PM,50.0,33.1,52,30.21,10.0,Variable,3.5,-,N/A,,Overcast,0,2013-03-24 19:53:00
1:53 PM,52.0,34.0,50,30.19,10.0,Variable,3.5,-,N/A,,Partly Cloudy,0,2013-03-24 20:53:00
2:53 PM,55.0,34.0,45,30.17,10.0,Variable,4.6,-,N/A,,Overcast,0,2013-03-24 21:53:00
3:53 PM,55.9,33.1,42,30.14,10.0,Calm,Calm,-,N/A,,Overcast,0,2013-03-24 22:53:00
4:53 PM,55.9,34.0,44,30.13,10.0,NNW,3.5,-,N/A,,Mostly Cloudy,340,2013-03-24 23:53:00
5:53 PM,57.0,33.1,40,30.11,10.0,Calm,Calm,-,N/A,,Clear,0,2013-03-25 00:53:00
6:53 PM,53.1,34.0,48,30.10,10.0,NE,6.9,-,N/A,,Partly Cloudy,40,2013-03-25 01:53:00
7:53 PM,50.0,33.1,52,30.10,10.0,NNE,4.6,-,N/A,,Scattered Clouds,30,2013-03-25 02:53:00
8:53 PM,46.0,33.1,61,30.10,10.0,NNW,3.5,-,N/A,,Clear,340,2013-03-25 03:53:00
9:53 PM,45.0,34.0,65,30.11,10.0,NNW,6.9,-,N/A,,Clear,330,2013-03-25 04:53:00
10:53 PM,43.0,34.0,71,30.11,10.0,North,5.8,-,N/A,,Clear,350,2013-03-25 05:53:00
11:53 PM,41.0,34.0,76,30.11,10.0,NNW,5.8,-,N/A,,Partly Cloudy,340,2013-03-25 06:53:00